sat.trackr.live / text

‹ back to catalog

STARLINK-3979

NORAD 52608 · 2022-052L

PAYLOAD ACTIVE UNKNOWN

§ Identity

Operator
Country
US
Launch date
2022-05-14
Launch site
AFETR
Launch vehicle
Mass (kg)
RCS (m²)

Purposes: comms

External: N2YO · Heavens-Above · Gunter

§ Orbital elements

Epoch: 2026-09-20T04:00:03.000096Z

Period
93.85 min
Inclination
53.1595°
Eccentricity
0.0001339
Mean motion
15.34398263 rev/d
Perigee alt
461.8 km
Apogee alt
463.6 km
Semi-major
6,840.8 km
B*
-2.3376e-4
RAAN
117.6216°
Arg perigee
84.2325°
Mean anomaly
186.1126°
Rev number
590

§ Raw data

STARLINK-39791 52608U 22052L   26263.16670139 -.00008265  00000+0 -23376-3 0  99902 52608  53.1595 117.6216 0001339  84.2325 186.1126 15.34398263  5908

JSON: /api/v1/satellites/52608 · /tle

For live sub-satellite position, see the globe view (requires WebGL).

§ Visibility from observer

Set your observer location to see the next 7 days of passes ≥ 10°. The values pass through the URL so the page stays shareable.

No JS? Fill the form by hand. The geolocation button needs JavaScript.